Home > Weather > Brilon > Past weeks

Flag for Germany Weather for the Past 2 Weeks in Brilon, North Rhine-Westphalia, Germany

Now
36 °F

Light rain. Partly sunny.


Feels Like: 26 °F
Forecast: 31 / 36 °F
Wind: 15 mph from Southwest

Location: Paderborn / Lippstadt

Current Time: Feb 10, 2016 at 8:31:48 AM

Latest Report: Feb 10, 2016 at 7:50 AM


Visibility: N/A

Pressure: 29.24 "Hg

Humidity: 87%

Dew point: 32 °F

Location of BrilonLocation

Historic Weather in Brilon — Graph

°F

Brilon Temperature Yesterday

Maximum temperature yesterday: 46 °F (at 4:50 PM)
Minimum temperature yesterday: 32 °F (at 9:50 PM)
Average temperature yesterday: 41 °F

High & Low Weather Summary for the Past Weeks

 TemperatureHumidityPressure
High52 °F (Jan 27, 7:20 PM)100% (Jan 28, 5:50 AM)30.30 "Hg (Jan 28, 5:50 AM)
Low32 °F (Jan 30, 8:20 PM)53% (Feb 3, 3:20 PM)28.82 "Hg (Feb 9, 5:50 PM)
Average43 °F79%29.85 "Hg
* Reported Jan 26 7:20 AM — Feb 10 7:20 AM, Brilon, Weather by CustomWeather, © 2016

Note: Actual official high and low records may vary slightly from our data, if they occured in-between our weather recording intervals... More about our weather records

Advertising

Brilon Weather History for the Previous 24 Hours

 ConditionsComfort  
Time TempWeatherWind HumidityBarometerVisibility
7:20 AM
Wed, Feb 10
36 °FPassing clouds.13 mph87%29.21 "HgN/A
6:50 AM34 °FPassing clouds.13 mph87%29.21 "HgN/A
6:20 AM36 °FPassing clouds.13 mph87%29.21 "HgN/A
5:50 AM34 °FLight rain. Partly cloudy.8 mph93%29.24 "HgN/A
5:20 AM34 °FLight rain. Partly cloudy.15 mph93%29.24 "Hg6 mi
4:50 AM36 °FPassing clouds.12 mph81%29.24 "HgN/A
4:20 AM34 °FPassing clouds.12 mph87%29.24 "HgN/A
3:50 AM36 °FPassing clouds.10 mph81%29.21 "HgN/A
3:20 AM34 °FPassing clouds.10 mph87%29.21 "HgN/A
2:50 AM36 °FPassing clouds.13 mph87%29.21 "HgN/A
2:20 AM36 °FPassing clouds.14 mph87%29.21 "HgN/A
1:20 AM36 °FPassing clouds.15 mph81%29.21 "HgN/A
12:50 AM36 °FPassing clouds.15 mph87%29.21 "HgN/A
12:20 AM36 °FPartly cloudy.18 mph87%29.18 "HgN/A
11:50 PM
Tue, Feb 9
36 °FLight rain. Passing clouds.17 mph87%29.15 "HgN/A
11:20 PM36 °FLight rain. Passing clouds.20 mph93%29.15 "HgN/A
10:20 PM34 °FRain. Passing clouds.16 mph93%29.09 "Hg3 mi
9:50 PM32 °FRain. Passing clouds.17 mph100%29.06 "Hg2 mi
9:20 PM34 °FRain. Passing clouds.21 mph93%29.03 "Hg3 mi
8:50 PM34 °FRain. Passing clouds.22 mph93%29.00 "Hg5 mi
8:20 PM36 °FRain. Partly cloudy.23 mph87%28.94 "HgN/A
7:50 PM43 °FSprinkles. Partly cloudy.26 mph76%28.88 "HgN/A
7:20 PM45 °FClear.23 mph76%28.85 "Hg10 mi
6:50 PM45 °FClear.26 mph71%28.82 "Hg10 mi
6:20 PM46 °FPassing clouds.18 mph66%28.85 "HgN/A
5:50 PM46 °FPassing clouds.20 mph71%28.82 "HgN/A
5:20 PM46 °FSprinkles. Partly sunny.21 mph76%28.85 "HgN/A
4:50 PM46 °FPartly sunny.13 mph76%28.85 "HgN/A
4:20 PM43 °FPartly sunny.14 mph81%28.88 "HgN/A
3:50 PM41 °FPartly sunny.16 mph87%28.91 "HgN/A
3:20 PM39 °FLight rain. Partly sunny.21 mph87%28.94 "Hg6 mi
2:50 PM39 °FLight rain. Partly sunny.22 mph87%28.97 "Hg6 mi
2:20 PM39 °FLight rain. Partly sunny.20 mph87%29.03 "Hg6 mi
1:50 PM37 °FLight rain. Partly sunny.17 mph87%29.09 "Hg6 mi
1:20 PM39 °FRain. Overcast.17 mph87%29.15 "Hg6 mi
12:50 PM43 °FLight rain. Broken clouds.12 mph71%29.18 "Hg6 mi
12:20 PM45 °FPassing clouds.10 mph61%29.21 "HgN/A
11:50 AM45 °FSunny.12 mph61%29.27 "Hg10 mi
10:50 AM43 °FPassing clouds.16 mph66%29.33 "HgN/A
10:20 AM43 °FPassing clouds.14 mph66%29.33 "HgN/A
9:50 AM43 °FScattered clouds.16 mph66%29.36 "HgN/A
9:20 AM41 °FScattered clouds.20 mph70%29.39 "HgN/A
8:50 AM41 °FScattered clouds.16 mph76%29.39 "HgN/A
8:20 AM41 °FScattered clouds.15 mph76%29.39 "HgN/A
Weather by CustomWeather, © 2016

See weather overviewHow to use our weather pages